Wind_Speed
9 8 8 8 8 7 7 6 7 7 7 8 8 9 9 9 10 11 11 12 13 13 13 13 13 13 14 14 14 15 15 15 16 16 16 15 15 16 18 19 21 22 22 22 22 23 25 29 31 32 31 32 34 33 31 33 36 36 36 35 35 38 42 42 41 44 46 42 42 43 39 34 35 36 35 35 36 36 35 36 33 31 30 30 32
11 10 9 8 8 7 7 7 8 8 8 9 9 9 9 10 10 11 12 12 13 14 15 15 14 13 14 14 14 15 15 15 16 16 16 16 16 17 19 21 22 24 23 23 22 23 27 31 33 33 30 30 34 35 34 34 34 35 35 37 38 37 40 42 39 41 46 44 41 42 40 35 35 38 39 38 37 34 32 32 34 32 30 30 31
11 11 11 9 7 8 7 8 8 8 9 9 9 9 9 10 11 11 11 12 13 14 16 16 15 14 14 14 15 15 16 16 16 17 16 17 19 19 21 22 23 24 24 24 25 25 28 31 31 30 29 29 32 34 35 35 33 34 35 37 39 37 39 41 39 40 43 43 41 41 40 36 36 40 43 42 39 36 32 30 32 31 28 28 30
11 12 11 8 7 8 8 8 8 8 9 9 9 9 9 10 10 10 11 12 13 13 15 17 16 16 16 15 16 16 16 16 17 17 16 17 20 21 21 22 22 23 24 25 25 25 26 28 29 29 29 31 32 32 34 35 35 36 35 35 37 38 40 43 43 40 41 42 42 42 41 38 36 37 39 39 38 38 38 34 32 32 29 27 27
10 11 10 8 8 9 8 8 8 9 9 9 10 10 11 11 11 11 12 12 13 13 15 15 15 17 17 17 17 17 17 17 17 17 16 16 19 21 21 21 21 22 23 24 23 23 24 24 26 27 28 30 32 32 33 33 34 36 36 35 36 38 39 39 41 41 40 42 41 40 40 37 34 33 33 35 35 36 39 38 35 34 33 30 27
11 11 9 8 8 9 9 9 9 9 10 10 10 11 11 11 11 12 12 12 13 14 15 15 16 17 18 19 17 16 17 17 16 17 18 17 18 21 21 21 21 21 23 23 21 21 21 22 23 24 26 29 31 32 33 32 31 31 33 34 35 37 36 34 38 41 41 41 39 39 40 38 34 32 32 33 34 34 36 36 33 32 32 31 30
12 11 9 8 9 10 9 9 9 9 10 10 11 11 11 11 12 14 14 13 14 15 15 16 17 17 18 19 17 15 15 15 14 15 17 18 18 20 21 21 21 21 22 22 20 19 19 20 22 24 26 27 28 31 32 31 29 28 30 31 32 35 35 33 38 42 40 37 37 39 42 41 39 36 33 32 34 33 33 32 31 30 30 30 30
13 11 9 8 9 10 9 10 10 10 11 11 11 11 11 12 14 14 14 14 14 15 16 16 17 18 18 18 17 16 16 15 14 14 16 17 18 20 21 21 20 21 22 21 17 16 17 19 22 25 28 29 29 31 32 31 30 30 29 29 29 31 32 31 32 34 34 34 36 38 40 42 41 39 37 35 34 34 35 33 31 30 29 29 30
13 10 9 9 9 9 10 10 10 10 11 12 12 12 12 13 14 14 14 14 15 16 17 17 17 18 17 17 16 17 16 14 14 15 15 17 19 20 21 20 20 21 22 20 16 15 17 19 21 24 30 32 31 31 33 33 33 33 31 30 28 27 29 31 30 29 29 32 37 38 38 42 43 39 38 38 36 36 36 36 35 33 31 30 30
12 9 9 9 9 10 10 10 11 11 11 11 12 13 13 14 15 14 14 14 15 17 18 17 17 17 16 16 17 17 16 15 16 16 16 17 19 21 22 21 21 21 22 19 16 16 18 19 20 24 30 34 33 33 34 35 36 37 37 35 30 25 25 30 34 34 30 30 35 37 39 42 43 39 37 36 37 37 36 34 35 36 34 33 32
11 9 9 10 10 10 10 11 11 11 12 12 13 13 14 16 17 16 15 15 16 17 17 17 16 16 16 16 16 16 15 15 18 18 17 18 19 20 21 21 21 22 22 20 17 16 18 20 20 22 28 32 33 34 35 35 36 39 41 39 32 24 21 24 30 35 34 32 34 36 39 41 42 40 36 35 35 37 37 35 35 34 33 33 34
9 8 9 10 10 11 11 11 12 12 13 13 13 14 15 16 17 16 15 15 16 16 16 16 16 16 16 15 15 15 15 16 18 18 17 18 19 19 21 21 21 22 21 20 18 17 19 21 22 22 25 29 33 35 35 35 36 39 41 42 37 28 22 21 23 29 33 35 36 36 38 41 43 40 36 36 36 35 35 37 37 36 33 32 34
9 9 10 10 11 12 12 12 12 13 13 13 14 14 15 15 15 14 14 14 14 15 15 16 16 16 16 15 14 15 16 16 17 18 18 19 19 19 21 22 21 21 21 20 19 19 20 22 24 24 23 27 30 33 34 36 37 39 41 43 42 36 28 25 23 25 28 33 38 40 38 39 43 42 36 34 36 34 33 35 37 37 35 34 35
11 11 12 12 13 13 13 13 13 13 13 13 14 14 15 15 14 13 13 13 14 14 14 15 15 15 16 16 16 15 16 16 17 19 20 21 21 22 22 23 22 22 21 20 20 22 22 22 24 26 25 26 29 31 33 35 38 41 41 43 45 40 33 28 25 26 27 30 36 42 41 39 42 44 38 35 35 34 34 36 36 37 37 35 33
13 13 14 14 14 15 14 14 13 12 12 12 13 14 15 15 13 12 13 12 12 13 13 13 14 15 16 18 18 16 16 17 17 18 20 22 23 24 24 24 24 22 21 20 21 23 23 24 24 26 27 28 29 30 31 33 37 41 42 44 45 40 35 32 29 29 31 31 33 40 43 42 43 42 38 36 36 35 36 37 37 36 37 36 33
15 15 16 16 16 16 15 14 13 12 12 12 13 14 14 14 13 13 12 12 13 13 13 14 16 18 19 20 19 18 18 18 17 17 18 21 23 25 25 24 24 23 22 20 21 23 25 24 24 25 27 27 29 30 30 30 35 40 42 45 45 42 38 36 33 34 39 38 33 37 42 44 45 44 38 35 34 33 34 37 38 36 34 33 31
18 18 18 18 18 17 16 15 13 13 12 13 13 13 14 14 13 12 13 14 15 14 15 15 16 18 20 20 19 18 19 19 18 19 19 19 20 23 25 24 24 25 23 19 20 24 25 24 23 24 25 25 27 29 28 29 33 38 42 45 45 44 41 39 38 41 45 43 36 37 42 45 47 48 46 42 38 34 33 33 35 36 34 31 30
22 21 20 20 19 17 16 14 13 13 13 13 13 12 13 14 13 14 16 17 16 15 15 15 15 15 17 18 19 20 20 19 19 19 18 18 18 21 23 24 25 26 23 18 19 24 27 24 22 23 23 23 25 26 26 27 30 35 42 45 44 44 44 43 46 49 47 41 34 36 42 46 47 47 48 48 44 39 37 34 31 31 32 31 30
23 22 20 19 17 16 15 14 14 14 13 13 12 13 14 15 15 16 18 17 15 14 14 14 14 14 14 16 19 19 18 18 19 19 18 17 17 18 21 24 25 26 23 20 20 23 25 24 22 21 22 23 24 25 25 25 27 33 41 43 43 45 46 45 48 50 45 38 31 30 36 42 46 45 45 46 45 42 41 40 35 32 32 31 28
21 19 18 17 16 16 15 14 14 14 13 13 12 13 14 15 15 16 16 15 14 14 14 15 15 15 15 17 16 15 15 18 20 20 19 18 17 17 21 24 25 24 24 23 23 24 24 23 22 21 22 22 23 24 24 23 24 30 38 41 44 46 46 47 48 45 38 32 26 24 25 31 40 44 42 42 44 43 41 41 38 34 34 34 30
19 18 18 17 16 16 15 15 15 14 14 13 12 13 14 15 15 15 16 15 14 15 16 17 16 15 16 15 13 12 15 19 19 19 17 16 16 17 20 23 24 24 24 25 25 25 24 23 21 20 21 22 22 23 24 22 22 28 34 40 44 45 43 45 46 41 30 20 18 19 19 22 30 38 38 37 40 42 41 42 39 33 33 35 31
18 18 18 17 17 17 17 16 15 14 14 13 13 15 16 17 17 16 16 16 16 16 19 19 17 15 15 14 11 12 16 18 17 16 15 13 14 16 19 22 23 24 25 25 25 25 25 23 21 21 22 23 22 23 23 21 20 26 33 39 44 43 41 42 42 41 31 14 10 14 17 21 25 30 32 30 33 38 39 41 40 34 33 35 32
19 19 19 20 21 20 19 17 16 15 15 14 15 16 16 16 16 16 17 17 17 17 17 17 15 14 14 12 11 12 15 17 15 15 14 12 12 14 17 20 21 22 24 24 23 25 24 21 20 21 23 23 21 22 22 20 19 24 30 36 41 41 41 42 42 43 38 22 8 8 13 20 24 27 29 26 27 33 37 38 39 38 36 36 33
20 21 23 25 23 21 20 19 18 17 16 15 16 16 15 15 16 17 17 18 17 16 14 14 13 13 13 12 11 11 13 14 14 14 14 13 12 14 17 19 20 20 21 21 22 23 23 21 20 22 23 21 19 21 22 20 18 21 26 32 39 40 40 42 43 43 42 35 25 18 11 14 20 25 28 26 24 29 34 35 37 39 37 34 33
24 26 28 27 25 22 21 19 17 15 14 13 13 13 13 14 15 16 16 17 17 15 13 12 13 12 12 13 12 11 11 13 13 14 15 14 14 16 18 18 18 18 19 18 19 22 22 20 19 20 20 18 17 20 22 18 16 19 22 29 36 39 39 41 43 41 40 39 35 30 22 13 14 21 26 28 26 27 30 33 35 38 39 34 33
25 27 28 28 25 20 18 17 15 13 12 12 12 12 13 14 15 16 16 16 16 14 12 12 12 13 15 15 12 10 11 13 13 15 16 17 18 19 18 17 16 16 16 16 17 20 21 18 17 18 18 16 16 18 19 16 15 17 19 24 32 36 36 38 40 40 39 38 36 35 31 23 12 15 22 27 30 32 32 34 34 35 38 38 36
19 20 20 21 19 17 17 16 15 13 11 11 12 11 11 12 15 17 18 17 16 14 13 14 14 15 17 16 11 8 9 10 12 15 17 18 19 18 16 16 15 13 13 14 15 17 18 15 15 16 16 16 15 16 17 15 15 16 17 20 27 32 32 32 35 39 39 37 37 38 39 34 22 7 10 18 26 30 31 32 33 32 33 37 37
14 14 14 14 14 14 13 13 13 12 11 11 11 11 11 12 15 18 20 20 19 18 18 17 16 16 16 15 10 7 7 8 11 16 18 17 17 16 14 14 13 11 11 13 14 15 14 13 13 13 13 14 15 15 15 15 14 15 15 15 19 25 27 28 31 36 39 38 36 38 41 42 38 27 13 1 14 25 28 28 27 28 30 34 36
12 13 12 11 12 12 11 10 11 11 9 9 12 15 16 16 18 20 23 23 22 22 23 22 20 17 14 13 12 11 11 12 14 17 18 17 16 15 13 12 11 10 10 11 13 13 13 12 11 12 12 14 15 14 14 16 15 15 15 15 17 19 21 23 27 32 37 39 38 37 39 42 44 42 35 25 12 7 23 27 26 29 31 30 31
11 12 12 12 12 11 10 10 10 9 9 10 14 18 19 17 17 20 22 21 21 22 23 23 22 19 14 14 17 17 15 16 16 16 16 16 15 14 13 11 10 9 8 9 11 12 11 10 10 12 13 14 14 13 13 15 17 16 16 18 20 19 17 19 22 25 30 35 37 37 36 38 41 44 42 39 35 24 9 6 13 22 27 27 28
11 12 13 14 14 13 12 11 11 11 13 13 13 14 15 15 16 18 20 21 20 20 19 19 19 17 14 14 18 18 15 13 14 15 16 16 14 13 13 11 9 9 8 9 9 9 9 8 9 11 12 12 11 11 11 13 15 16 16 18 21 21 19 19 21 21 24 29 32 34 35 35 37 39 39 36 36 36 32 27 21 14 11 10 15
13 13 13 13 13 12 12 12 12 12 12 12 11 10 11 14 17 19 19 19 19 18 17 17 17 16 14 14 15 15 13 11 12 14 15 15 13 12 12 11 10 9 9 8 8 8 8 8 9 9 9 9 9 9 10 10 12 15 17 18 19 20 20 20 20 19 19 22 25 27 30 32 32 33 34 34 34 35 36 37 35 32 30 26 20
12 12 13 12 11 10 10 11 11 9 9 9 9 9 9 12 15 18 18 17 16 15 14 14 14 14 14 13 12 11 10 10 11 13 14 14 13 11 10 11 10 9 6 5 6 7 7 7 7 7 7 7 7 8 8 9 10 12 15 18 18 18 18 18 18 18 18 18 19 20 22 25 27 29 30 31 32 33 34 35 35 34 34 33 30
10 11 13 13 12 11 10 9 9 8 8 8 8 9 11 11 12 15 16 14 12 11 10 10 11 11 11 11 10 9 9 10 12 13 13 13 11 9 9 11 11 10 7 4 3 4 5 5 6 7 7 8 8 9 9 10 11 12 14 16 17 17 16 16 17 18 18 17 16 17 17 18 21 24 25 26 27 29 29 30 31 31 31 31 31
11 11 12 12 11 9 9 8 8 8 7 7 7 9 11 11 11 12 12 10 8 7 7 7 8 10 11 10 9 9 9 11 12 12 13 13 10 8 8 10 10 9 8 4 2 3 5 6 6 8 9 10 10 11 12 12 12 13 14 16 17 18 17 17 17 18 19 18 17 16 15 15 15 18 20 21 22 24 24 24 26 27 27 27 28
10 9 10 9 7 7 7 7 7 8 7 7 8 8 8 7 6 6 7 6 4 3 5 6 9 12 14 13 10 9 11 13 13 13 13 12 8 5 5 5 5 5 4 3 4 5 6 6 6 7 8 10 12 13 14 14 14 14 16 17 19 19 20 20 19 19 19 19 19 18 16 15 14 14 15 16 18 18 19 19 21 22 23 24 24
9 12 12 9 7 7 7 7 8 10 10 10 9 8 6 5 4 4 5 5 3 3 2 4 6 7 9 11 10 10 12 14 14 14 13 10 6 3 3 2 2 2 2 3 3 3 5 6 7 7 7 7 9 11 11 12 13 14 15 16 17 18 19 19 20 20 20 20 20 20 19 18 17 15 13 13 14 15 14 14 16 17 18 19 20
8 11 11 9 8 8 8 8 9 9 8 8 8 8 6 5 5 6 8 7 5 5 4 3 3 5 9 13 11 7 9 12 12 11 11 9 6 5 4 2 2 3 5 6 6 7 8 8 9 9 9 8 9 10 10 11 11 12 12 13 14 14 15 16 17 18 19 20 20 20 20 20 19 17 15 14 14 14 12 11 11 11 12 13 15
8 10 10 11 11 9 7 7 7 5 4 5 6 6 5 3 3 5 8 8 8 8 7 8 10 11 13 15 10 3 3 6 5 5 7 7 6 5 5 4 4 6 8 9 9 9 10 10 10 9 9 9 9 10 11 12 12 13 14 14 14 14 15 16 17 17 17 17 18 18 18 18 18 18 17 17 17 16 13 11 10 9 9 10 11
9 10 10 9 10 9 7 7 6 5 7 7 5 4 4 3 3 3 4 5 6 8 9 11 13 14 13 12 8 4 1 2 2 2 5 5 4 3 4 4 4 6 9 9 8 9 10 11 10 9 10 9 9 10 11 11 12 14 15 15 16 16 16 16 17 17 17 16 16 16 17 17 17 17 17 17 17 17 15 12 11 10 9 8 9
6 8 8 6 6 6 5 6 6 6 7 7 6 5 5 4 2 2 1 1 3 5 5 6 8 10 9 7 6 5 2 0 1 1 3 3 2 2 3 3 4 5 6 6 6 6 8 9 9 9 9 9 9 10 11 11 12 13 14 15 15 16 16 16 16 16 16 15 15 15 16 17 17 17 17 17 17 16 15 14 12 11 9 7 6
5 6 6 4 4 5 6 7 8 7 5 5 5 6 5 3 1 1 1 1 2 3 3 3 3 4 5 5 5 5 4 1 1 1 2 2 1 2 3 4 3 1 2 4 4 5 6 7 8 8 9 10 11 11 11 12 12 13 14 14 15 15 15 15 14 14 13 13 13 13 13 14 14 15 15 16 16 16 16 15 13 11 8 6 5
6 6 5 5 6 7 8 8 6 4 4 5 5 4 5 5 5 5 4 4 4 4 4 4 4 4 4 3 2 3 3 1 1 0 1 0 2 2 2 2 2 2 2 3 4 6 7 7 8 9 10 11 12 13 13 13 13 13 14 14 14 14 14 13 12 12 12 11 12 12 12 11 12 12 12 13 14 14 14 14 13 12 9 8 7
6 6 6 6 7 7 7 6 4 3 5 7 6 4 4 4 5 5 4 4 6 6 6 5 5 5 4 2 1 1 1 0 1 1 1 2 1 0 2 3 4 5 5 4 4 6 7 8 8 9 9 9 10 11 12 12 13 13 13 13 13 13 13 13 12 12 12 11 11 12 11 11 12 12 11 11 12 13 13 13 13 12 11 10 9
4 5 5 5 5 4 4 5 5 6 8 9 7 4 3 4 5 5 5 5 6 7 6 6 5 4 4 2 2 1 1 1 1 2 2 2 1 1 2 2 4 8 11 10 8 7 7 7 7 8 8 8 8 9 9 10 11 12 12 12 13 13 13 13 13 12 12 13 13 13 13 13 13 13 13 12 11 12 12 12 12 11 11 11 10
4 3 3 4 3 4 4 5 6 7 7 7 7 6 6 6 7 8 8 7 6 7 7 5 4 4 3 2 2 2 2 2 1 1 1 1 1 2 1 2 4 4 11 13 10 8 8 7 7 7 7 7 7 7 8 8 9 11 12 12 12 12 12 12 13 13 13 12 13 14 15 15 14 14 13 13 12 12 12 11 11 11 10 10 9
4 3 5 5 5 5 6 6 7 8 8 7 8 9 9 9 8 9 9 8 7 7 7 6 5 5 4 3 3 3 2 2 2 2 5 4 0 2 2 1 2 4 10 9 5 4 5 6 6 6 7 7 6 6 7 7 8 9 10 10 10 11 11 11 12 13 12 12 12 14 14 14 14 14 14 14 13 13 12 12 12 11 10 10 9
5 5 6 7 7 7 7 7 8 10 9 8 8 9 9 9 9 9 8 8 7 7 6 6 5 5 4 4 4 4 3 2 2 1 2 2 1 2 2 1 3 3 5 6 5 3 3 4 5 6 7 8 8 8 8 8 8 8 8 9 9 9 10 10 11 12 12 11 12 13 13 12 13 14 14 14 14 14 14 14 14 14 13 12 10
6 6 7 8 7 8 8 8 9 9 9 8 9 9 8 9 9 8 7 7 7 6 6 6 5 5 5 4 4 4 3 3 2 2 2 2 2 3 4 2 2 3 1 4 4 3 4 4 4 5 6 7 8 9 9 9 8 8 8 8 8 8 8 9 9 10 10 10 10 11 12 11 12 13 13 13 14 14 14 14 15 16 16 15 14
7 7 8 9 9 9 9 9 10 10 9 9 10 9 8 9 9 8 8 8 8 7 7 6 6 5 5 5 4 4 3 3 2 2 2 2 2 3 3 2 1 2 0 2 3 4 4 3 3 4 5 5 6 8 9 9 9 9 8 8 8 8 7 8 8 8 8 9 9 9 10 11 11 12 12 12 12 12 13 13 15 15 15 15 15
8 8 9 10 11 11 11 11 11 11 10 10 10 10 10 10 9 9 9 9 8 8 8 7 6 5 5 5 5 4 4 4 3 2 2 2 2 2 3 3 1 1 1 2 3 3 4 4 4 4 5 5 6 7 8 8 8 9 8 8 8 8 8 8 8 8 8 8 7 8 9 9 10 11 11 12 11 11 11 12 14 14 13 14 14
Wind_Direction
243 239 237 247 260 269 273 274 276 276 269 266 266 267 274 283 286 287 289 296 300 302 301 298 297 300 303 306 308 308 307 306 306 308 309 308 306 308 310 313 317 320 321 319 316 317 319 321 322 322 318 313 311 307 299 293 290 285 279 271 265 265 266 262 258 261 264 263 264 264 259 256 260 262 259 256 255 254 246 238 237 239 240 241 242
227 229 239 253 262 261 256 254 259 263 259 260 265 272 281 286 287 287 289 294 298 299 300 299 297 298 301 304 306 306 306 305 305 305 306 306 307 309 311 314 318 320 320 318 315 317 319 321 324 324 317 310 308 306 302 297 292 288 282 275 270 266 259 256 257 259 262 263 262 262 260 255 253 256 259 258 254 251 245 238 237 239 239 239 240
220 236 256 265 260 257 258 257 258 260 261 263 266 270 278 283 285 285 287 292 293 293 297 300 298 294 294 298 301 303 305 305 307 307 306 306 308 310 312 315 317 318 320 319 316 318 321 323 325 324 318 312 308 305 302 298 292 289 287 281 276 270 258 254 258 258 258 261 261 259 259 257 253 254 256 258 254 247 243 239 235 236 239 240 241
214 233 251 258 251 252 257 259 258 258 260 264 265 270 280 285 285 285 288 292 292 292 296 301 302 298 293 293 296 301 303 303 307 306 304 304 305 307 310 313 315 317 321 322 319 320 324 326 328 327 322 316 312 308 304 300 296 294 291 286 279 274 267 260 259 259 257 259 260 258 259 259 255 252 252 256 253 244 241 242 237 237 243 243 241
213 222 230 236 240 245 252 254 255 257 260 263 266 271 277 282 286 289 292 293 293 294 295 297 299 296 293 292 294 297 300 303 306 304 302 300 300 303 308 311 311 315 321 323 320 322 326 329 331 330 327 320 314 312 309 304 302 300 297 291 281 277 276 264 257 260 258 255 257 258 256 254 252 249 246 248 247 241 239 240 238 241 245 242 237
213 217 222 232 237 241 247 250 252 257 261 265 268 270 274 282 288 288 289 292 293 295 295 292 292 292 293 292 289 288 293 299 300 298 297 297 297 302 308 309 307 310 320 322 318 321 329 333 336 337 334 327 321 319 317 312 310 309 306 301 289 281 279 266 256 259 258 253 255 257 254 249 247 246 242 240 242 240 238 237 235 239 243 239 235
215 221 227 232 235 240 245 249 253 258 261 263 266 269 273 280 282 282 284 289 293 295 296 294 293 292 293 292 287 280 281 286 287 287 292 295 298 303 307 307 304 307 317 319 316 322 329 336 346 350 346 341 338 338 334 325 318 316 315 311 297 285 282 275 262 256 253 252 253 253 252 249 246 245 243 241 241 237 235 236 235 237 240 236 231
220 233 247 244 238 239 242 248 253 257 261 264 266 268 271 276 282 287 291 293 293 295 297 295 292 291 291 291 288 280 277 280 281 280 286 293 298 302 305 304 302 305 313 316 313 317 328 341 353 355 351 348 348 350 349 342 333 329 327 322 308 289 279 278 270 259 254 257 256 252 252 250 246 244 243 241 238 234 234 237 238 239 239 234 230
224 242 257 251 243 242 244 250 256 257 261 265 266 269 274 280 287 294 296 293 292 295 298 295 291 291 293 292 287 281 279 276 274 277 288 297 300 303 304 302 299 303 310 312 308 310 326 343 352 351 350 349 348 349 350 349 344 339 338 335 326 305 281 273 273 269 265 264 260 254 251 249 246 242 238 237 237 238 240 243 243 242 241 237 235
236 256 257 244 237 242 249 257 263 262 261 263 266 272 279 285 290 295 295 292 294 298 299 296 292 292 293 292 289 288 285 277 276 287 300 305 306 306 305 301 298 303 307 307 305 306 320 338 347 348 349 350 348 347 348 349 348 344 342 340 335 323 298 280 275 273 270 267 263 256 248 246 244 239 237 240 241 242 243 244 241 238 239 238 239
246 267 254 239 233 239 249 258 263 262 260 264 271 276 282 287 293 298 297 296 298 300 299 295 293 293 293 291 290 290 289 285 287 294 302 309 310 307 304 301 298 302 305 304 304 307 316 330 341 346 350 351 351 349 347 348 349 347 346 344 340 332 318 298 283 277 272 268 266 257 246 244 244 240 241 244 245 245 244 239 234 233 235 237 238
247 261 246 236 234 238 246 252 255 256 259 266 273 277 282 288 294 298 298 299 301 300 300 297 295 296 295 293 292 290 287 287 292 297 305 315 317 310 305 302 298 300 303 300 300 309 317 323 329 339 349 354 354 350 345 345 346 346 346 346 344 339 331 318 300 286 276 268 265 259 249 246 245 244 243 242 243 245 243 237 234 235 236 235 235
241 249 240 233 230 235 243 247 249 255 259 265 271 276 281 285 288 294 296 298 301 301 301 300 298 299 297 292 292 295 295 295 297 302 310 319 323 318 311 305 300 298 299 295 293 303 315 318 319 326 339 350 353 349 342 339 341 343 344 344 344 342 337 329 317 303 287 272 264 260 254 248 245 243 241 239 239 240 239 236 233 232 233 234 235
233 240 238 232 228 231 238 241 246 253 259 265 271 274 277 280 284 290 293 296 299 301 302 304 304 302 297 293 294 295 296 298 300 304 310 317 322 321 316 310 304 297 294 293 290 295 308 315 314 316 324 336 343 342 339 337 338 341 342 342 342 340 335 331 322 312 300 281 265 259 253 249 245 241 239 239 239 237 237 236 232 231 234 237 238
232 236 235 231 229 229 232 237 243 251 257 263 268 271 274 278 281 284 287 290 293 296 299 301 298 293 292 296 298 294 292 294 296 301 309 316 318 319 317 314 309 299 292 295 295 297 307 313 311 312 316 322 328 331 333 336 338 340 342 342 341 337 331 327 322 314 307 291 271 259 253 248 243 238 235 239 241 239 239 240 238 237 240 240 236
231 236 235 230 228 227 229 233 239 247 254 258 263 268 270 272 274 276 277 277 281 285 288 289 289 289 292 298 299 296 297 299 296 297 305 309 311 313 315 314 312 304 294 294 296 299 307 311 310 311 314 318 324 326 329 334 337 339 342 342 340 336 332 327 321 317 312 301 278 258 251 247 242 236 234 238 241 240 240 242 239 235 235 235 230
233 237 236 230 224 224 226 230 237 244 250 255 261 264 264 263 266 267 265 269 277 284 288 290 293 295 299 301 300 299 303 305 302 299 298 297 300 306 310 311 312 306 296 292 297 303 311 314 312 312 314 319 326 327 328 331 335 339 343 342 339 336 333 329 324 319 314 304 281 254 243 240 238 237 238 241 241 237 235 238 237 234 234 231 225
233 234 234 228 222 223 227 229 236 242 248 256 262 264 263 260 258 260 266 273 279 284 287 290 292 294 298 302 303 305 307 306 303 300 293 288 291 298 303 305 307 305 301 298 299 305 314 320 317 315 318 322 328 330 330 330 334 342 345 343 340 336 332 330 328 323 314 302 280 251 237 234 234 234 237 240 240 235 231 233 236 236 236 233 228
226 228 229 224 221 225 229 231 237 242 248 256 261 265 265 260 257 262 269 275 279 281 284 286 287 288 292 299 305 310 310 306 303 299 292 286 288 295 298 300 304 307 308 307 305 307 314 321 322 320 324 328 329 331 332 330 333 342 346 344 340 337 335 334 332 325 315 300 276 247 234 233 231 231 233 236 238 237 233 231 234 236 236 236 234
223 223 223 222 225 228 229 233 238 243 249 255 261 266 264 257 257 261 265 270 275 275 278 283 286 286 288 296 303 305 305 308 309 305 297 291 290 294 297 298 301 306 308 311 316 318 319 323 325 324 327 330 330 330 331 330 331 338 344 345 343 340 340 340 336 330 316 295 266 239 235 238 234 230 230 232 234 236 234 232 233 236 235 234 235
222 221 222 225 227 227 230 237 242 244 249 254 259 263 260 256 259 260 261 267 271 270 275 283 285 282 287 295 295 289 298 309 313 309 303 298 296 296 296 296 297 301 305 311 318 321 322 325 326 325 326 329 328 329 330 329 332 341 347 348 346 344 344 344 343 342 334 301 254 231 234 241 234 228 228 230 232 233 233 232 232 232 229 228 231
221 221 223 225 227 231 238 243 244 247 251 252 255 260 260 260 262 261 260 265 267 267 275 283 282 278 283 289 284 282 297 311 312 304 300 299 300 299 298 296 295 298 303 308 315 320 322 324 325 323 325 327 326 328 330 327 336 352 356 352 349 349 351 352 352 357 1 343 259 239 239 236 230 226 226 229 231 230 229 230 229 228 227 226 226
224 222 223 226 230 236 242 244 247 252 253 250 257 267 267 262 260 259 259 263 265 265 271 275 275 276 280 282 276 279 298 312 311 301 297 300 304 305 302 299 297 297 299 303 311 319 321 322 322 321 323 325 324 327 330 327 334 354 1 357 352 353 358 0 359 4 11 13 346 286 255 236 228 225 224 224 225 226 226 226 226 227 228 227 227
225 224 226 231 235 240 245 248 251 251 250 251 260 269 269 262 257 255 256 260 263 264 264 265 268 274 277 277 274 278 296 312 315 309 307 307 308 308 305 302 301 299 297 300 309 318 320 320 320 320 322 325 325 327 332 332 334 348 360 0 356 356 2 5 4 6 14 19 19 7 326 256 234 227 225 223 222 223 224 223 224 226 225 223 224
232 232 234 238 245 246 245 247 250 247 247 254 260 263 266 265 260 256 256 260 262 259 259 264 271 275 275 275 273 274 294 314 317 312 311 309 309 310 307 305 305 301 296 300 310 317 318 319 321 322 323 326 326 328 333 336 335 341 355 4 1 358 2 7 6 7 13 17 18 17 6 329 270 244 234 227 221 220 221 221 223 225 222 218 220
243 244 244 247 249 243 237 246 256 251 247 254 262 265 267 266 265 263 261 263 266 266 266 272 277 279 281 283 278 277 297 312 310 305 307 309 309 309 306 305 307 303 300 305 311 312 315 319 323 325 328 330 330 330 332 333 333 337 354 11 7 1 3 10 11 10 12 16 19 22 21 11 330 264 244 233 224 220 221 220 220 223 222 219 222
247 244 243 242 238 229 231 247 257 253 253 263 270 271 268 268 274 277 271 268 272 275 276 281 284 287 293 297 297 301 315 315 301 299 305 309 309 310 308 307 308 304 300 302 306 309 316 323 327 330 334 335 332 331 330 330 333 338 353 12 14 7 7 14 17 16 15 18 25 28 29 30 28 355 260 238 223 219 221 221 219 220 220 219 222
236 226 223 223 224 226 234 249 260 265 270 273 269 266 268 276 283 283 279 280 282 275 272 279 288 294 299 301 302 313 326 318 304 307 312 314 316 320 317 309 304 300 295 297 306 316 326 332 335 337 338 334 329 329 333 335 340 343 347 1 13 11 8 13 22 24 19 19 25 29 32 36 40 42 38 274 220 221 229 232 225 217 211 209 214
219 218 221 226 231 233 238 252 268 276 276 269 268 272 276 279 279 277 280 287 289 280 275 278 283 287 292 293 291 296 304 305 307 314 318 320 324 327 322 311 305 302 298 300 310 322 333 340 341 338 336 333 330 331 337 342 349 354 350 349 356 360 359 5 20 28 25 21 21 25 31 37 40 41 44 47 55 206 226 230 223 216 215 217 219
220 228 239 243 243 243 247 257 267 272 272 270 277 284 285 279 274 275 281 289 291 285 281 281 281 281 282 282 284 289 296 302 308 315 319 323 327 328 324 316 310 307 307 314 322 331 341 346 340 333 333 334 334 336 341 347 354 2 2 358 359 2 3 8 19 26 27 25 23 22 28 35 38 38 40 42 46 55 79 179 195 203 214 226 231
233 247 255 257 256 255 259 267 272 276 278 276 277 283 285 279 276 279 285 289 290 286 284 283 282 281 278 278 285 292 299 306 311 315 320 326 328 326 325 324 323 324 330 336 337 335 334 333 329 329 332 336 338 342 346 351 358 6 8 7 10 16 20 22 25 25 24 27 28 25 27 34 39 41 41 40 43 49 53 55 63 87 122 161 194
248 257 261 265 266 261 259 266 274 278 280 279 274 272 276 280 285 288 289 289 288 286 286 286 284 282 281 282 287 293 299 307 313 316 321 326 327 327 327 327 328 332 340 348 350 343 337 333 330 331 338 346 350 352 354 360 9 16 17 16 18 22 25 27 30 27 22 25 31 30 30 33 38 41 42 43 45 49 53 54 54 56 60 68 85
256 261 263 266 269 267 264 268 273 274 274 276 276 276 278 284 288 289 291 295 293 289 289 291 289 288 288 286 286 292 302 314 317 317 321 326 330 333 332 330 331 332 334 352 7 359 353 352 347 346 355 6 10 9 7 11 23 31 32 29 26 26 29 33 36 34 29 27 30 33 33 35 39 41 41 43 45 46 46 48 48 49 51 53 56
259 264 265 262 260 263 268 272 274 273 270 272 278 280 279 276 276 281 291 303 305 297 297 304 305 302 298 294 295 304 315 319 318 318 322 327 334 345 350 353 357 349 325 302 310 329 348 13 16 12 17 20 20 22 21 21 26 35 41 41 35 31 32 35 37 40 38 33 31 34 34 35 42 45 44 43 43 43 41 41 41 43 48 51 52
270 274 273 271 268 269 272 272 272 272 273 277 279 279 276 272 269 275 286 296 301 298 305 321 329 327 323 317 313 316 320 321 320 320 322 326 336 357 8 9 6 346 321 313 343 2 17 34 30 26 31 32 30 32 31 26 26 30 37 41 39 33 30 31 33 39 43 40 36 37 38 37 41 44 44 44 45 45 44 42 41 42 46 50 51
274 270 269 272 275 275 274 271 270 270 270 269 270 274 276 271 265 269 273 269 267 290 316 341 352 346 338 332 330 331 332 332 329 322 318 319 329 357 17 14 359 334 334 21 50 38 38 45 39 33 36 35 33 36 35 33 34 37 38 41 41 35 31 29 29 33 40 41 39 39 39 40 39 39 40 43 44 44 45 46 46 46 48 49 49
268 259 257 255 249 253 260 266 270 271 267 263 263 265 262 250 234 231 238 231 188 130 53 9 5 353 330 321 327 340 349 352 349 341 330 325 325 330 336 345 354 1 35 70 71 51 53 56 49 43 41 36 33 33 33 32 35 35 34 34 34 33 33 32 30 30 34 35 36 36 37 37 35 33 34 38 36 35 37 42 45 48 49 46 45
269 263 259 252 247 253 262 266 271 270 263 258 257 248 236 230 222 215 218 219 197 169 172 223 248 252 274 289 302 332 353 354 357 358 353 353 6 16 12 17 52 77 89 94 89 76 69 64 57 53 54 54 52 49 45 40 35 32 30 29 28 31 33 33 30 28 29 30 31 32 34 34 32 28 27 30 29 28 28 30 33 40 43 40 38
261 272 268 255 250 252 252 254 261 257 229 230 241 233 217 204 197 199 204 211 215 216 229 255 267 269 279 290 295 313 355 340 343 8 11 10 22 40 48 59 79 96 104 105 100 87 70 57 49 46 45 48 52 50 45 40 36 35 35 33 30 29 31 31 28 24 23 25 27 28 28 29 28 25 23 23 24 25 27 27 24 24 27 24 22
253 271 275 259 246 242 236 232 235 227 214 215 220 204 176 159 159 176 193 217 243 259 268 273 274 272 275 281 278 253 225 323 324 8 22 24 39 67 76 78 93 108 110 103 92 78 60 46 40 38 35 35 38 37 33 30 29 29 29 28 26 25 25 25 24 22 21 22 25 29 30 27 24 22 21 22 23 22 20 19 19 18 18 19 19
237 255 269 257 230 222 220 211 209 213 212 207 199 187 177 167 153 140 145 268 293 301 293 272 267 267 265 265 262 249 238 345 23 37 33 32 58 97 101 110 126 127 111 88 61 41 31 26 28 32 31 27 25 25 22 16 14 16 16 15 14 15 15 13 12 13 15 17 20 26 31 29 25 22 20 21 22 21 18 15 15 14 12 12 18
223 239 258 251 208 195 199 205 214 221 208 185 182 186 182 177 190 239 262 269 280 294 290 269 268 274 268 259 260 261 258 241 115 42 352 337 254 174 142 143 155 139 51 41 28 16 12 13 11 11 9 7 7 8 6 0 359 1 2 1 0 1 1 2 1 2 4 8 11 16 22 25 24 20 18 19 20 19 18 19 18 16 14 10 7
233 229 229 225 213 210 212 213 217 222 202 192 197 189 174 186 223 239 241 248 260 272 277 278 290 298 290 278 282 287 281 258 156 245 310 270 196 200 185 168 190 253 324 349 357 360 0 358 355 356 356 355 355 355 353 352 354 356 355 354 355 357 358 358 358 359 2 6 10 11 13 16 17 12 10 14 17 16 16 19 19 18 16 7 356
231 215 211 220 228 227 221 208 191 184 194 203 210 200 175 192 233 249 241 241 257 267 267 265 275 289 297 304 324 325 296 240 154 139 111 114 128 62 348 331 310 308 316 325 337 345 346 344 343 348 351 349 349 350 350 349 351 353 354 356 356 359 2 5 7 9 13 17 21 22 20 18 18 12 7 10 13 13 11 12 13 14 13 5 355
195 194 198 209 217 211 198 190 195 209 216 215 214 217 222 230 246 254 249 248 258 261 255 251 253 257 264 278 294 303 301 287 182 142 141 144 127 55 3 352 341 327 317 313 320 337 349 353 350 349 353 357 358 358 357 355 352 354 360 5 5 6 10 12 14 19 24 27 31 35 34 30 26 20 14 14 18 17 12 6 4 6 8 6 3
198 205 202 200 202 205 204 205 212 224 231 227 223 234 245 246 249 255 255 252 253 252 247 242 239 236 237 248 262 278 292 279 220 218 281 273 225 253 289 68 63 331 298 298 316 341 353 1 4 1 5 14 16 11 8 5 1 1 5 8 9 12 15 15 17 23 27 28 33 38 36 32 29 26 23 22 24 23 17 10 4 3 3 2 4
224 230 225 220 223 228 228 224 226 234 241 242 243 247 250 249 254 261 259 247 237 235 233 227 222 224 227 227 227 231 236 223 227 295 332 349 77 211 250 90 99 273 281 293 330 1 352 359 11 13 11 17 22 22 18 15 11 9 10 10 10 14 18 19 21 25 25 25 32 38 34 28 26 27 27 29 30 28 23 19 17 15 9 2 357
230 231 233 232 233 235 235 238 243 246 247 247 247 250 251 249 251 257 257 244 227 216 214 213 212 211 211 211 212 210 203 193 193 231 337 10 132 207 256 228 179 227 286 323 356 16 12 14 20 17 13 11 10 10 11 14 14 11 11 12 12 13 16 19 23 24 23 24 32 38 35 29 28 27 25 27 31 31 28 28 30 29 23 15 8
233 235 237 237 241 245 244 247 251 253 252 250 249 250 250 249 246 246 246 240 227 216 215 217 216 213 210 207 205 204 203 197 185 184 193 196 207 250 288 312 121 141 264 322 338 5 26 27 20 14 13 11 5 356 352 357 5 6 6 10 13 11 12 16 18 19 18 19 27 35 32 27 28 29 25 23 28 29 27 30 36 34 25 20 20
239 243 242 240 244 249 249 249 252 253 251 250 250 249 246 245 245 243 241 236 230 225 221 217 213 213 212 206 200 197 193 186 184 194 207 205 206 244 284 317 61 112 240 309 332 356 8 11 9 5 3 2 356 343 336 339 347 349 349 357 4 3 4 10 15 17 14 11 17 29 31 25 25 27 24 22 25 27 24 27 33 31 21 16 19
238 244 246 247 248 247 244 246 251 252 249 248 248 248 247 245 243 241 238 233 228 225 223 217 210 208 206 203 203 204 202 197 188 182 198 207 201 224 272 293 311 125 328 335 341 343 345 347 343 342 349 349 335 322 321 327 333 333 334 341 347 349 352 359 8 16 16 11 14 26 29 24 23 24 21 19 24 27 26 26 29 25 17 12 15
Height
1544 1544 1544 1544 1544 1544 1544 1543 1543 1543 1542 1542 1542 1541 1541 1541 1540 1540 1538 1537 1536 1535 1534 1533 1532 1531 1531 1530 1529 1528 1526 1525 1524 1523 1522 1521 1520 1519 1518 1516 1515 1514 1513 1512 1510 1509 1507 1505 1503 1501 1499 1496 1493 1492 1490 1487 1485 1483 1482 1482 1481 1480 1478 1477 1475 1470 1470 1474 1475 1476 1479 1481 1480 1480 1482 1483 1483 1483 1483 1485 1486 1486 1486 1486 1487
1542 1542 1542 1543 1543 1542 1542 1542 1542 1542 1541 1541 1541 1541 1541 1540 1540 1539 1537 1537 1535 1534 1533 1532 1531 1530 1529 1528 1527 1526 1525 1524 1523 1522 1520 1520 1518 1518 1516 1515 1514 1512 1511 1510 1508 1507 1505 1503 1500 1498 1496 1494 1491 1489 1487 1485 1482 1480 1479 1478 1476 1475 1473 1471 1471 1467 1465 1468 1470 1471 1473 1476 1476 1476 1477 1478 1479 1479 1480 1482 1483 1482 1481 1482 1483
1540 1540 1540 1541 1541 1541 1541 1541 1540 1540 1540 1540 1540 1540 1540 1539 1539 1538 1537 1536 1535 1533 1532 1530 1529 1528 1527 1527 1526 1525 1524 1522 1521 1520 1519 1518 1516 1516 1515 1514 1512 1511 1509 1508 1506 1505 1503 1500 1498 1496 1494 1491 1488 1486 1483 1481 1479 1476 1474 1473 1471 1470 1469 1467 1466 1463 1461 1462 1465 1466 1467 1470 1471 1472 1471 1472 1475 1477 1477 1478 1478 1477 1477 1478 1479
1539 1539 1538 1539 1539 1539 1539 1539 1539 1539 1539 1539 1539 1539 1539 1538 1537 1536 1536 1535 1533 1532 1530 1529 1528 1527 1526 1525 1524 1523 1522 1521 1519 1518 1517 1516 1515 1514 1513 1512 1511 1509 1507 1506 1504 1502 1500 1498 1496 1493 1491 1488 1485 1483 1480 1477 1475 1472 1470 1468 1466 1464 1464 1462 1460 1459 1458 1458 1459 1461 1462 1464 1466 1467 1467 1467 1469 1472 1473 1474 1475 1474 1474 1475 1476
1537 1537 1537 1537 1537 1538 1538 1538 1538 1538 1537 1538 1537 1538 1537 1536 1536 1535 1534 1533 1532 1531 1530 1528 1527 1525 1524 1523 1522 1520 1520 1518 1517 1516 1515 1514 1513 1512 1511 1510 1509 1507 1505 1504 1502 1500 1499 1496 1494 1491 1489 1486 1482 1480 1477 1473 1471 1468 1465 1463 1461 1459 1458 1458 1455 1454 1454 1454 1454 1456 1458 1459 1461 1463 1464 1463 1464 1466 1468 1470 1471 1471 1472 1472 1473
1534 1535 1535 1536 1536 1536 1536 1536 1536 1536 1536 1536 1536 1536 1535 1534 1534 1533 1532 1532 1531 1530 1528 1527 1525 1524 1522 1520 1519 1518 1517 1516 1515 1514 1513 1512 1511 1510 1509 1508 1506 1505 1503 1502 1500 1499 1497 1495 1492 1489 1487 1484 1480 1477 1474 1471 1468 1465 1462 1458 1456 1454 1453 1453 1452 1450 1450 1450 1450 1451 1452 1455 1457 1458 1459 1460 1460 1461 1463 1464 1465 1466 1467 1467 1468
1532 1532 1533 1534 1534 1534 1535 1535 1535 1535 1534 1534 1534 1533 1533 1533 1532 1531 1530 1529 1529 1528 1526 1525 1523 1522 1520 1518 1517 1515 1515 1514 1513 1512 1511 1510 1510 1508 1507 1506 1504 1503 1501 1500 1498 1497 1495 1493 1490 1487 1485 1482 1479 1475 1471 1468 1465 1462 1459 1455 1452 1450 1448 1449 1448 1446 1445 1446 1447 1447 1448 1450 1452 1454 1456 1457 1456 1457 1458 1459 1459 1460 1460 1462 1463
1529 1530 1530 1531 1532 1532 1533 1533 1533 1533 1532 1532 1532 1531 1531 1531 1529 1528 1527 1527 1526 1525 1524 1523 1521 1520 1518 1516 1515 1513 1512 1511 1511 1510 1509 1508 1507 1506 1505 1504 1502 1501 1499 1498 1496 1495 1493 1491 1488 1485 1483 1481 1477 1473 1470 1467 1463 1459 1456 1452 1448 1446 1444 1444 1444 1443 1442 1441 1442 1443 1445 1446 1447 1449 1452 1453 1451 1452 1453 1454 1454 1455 1456 1457 1459
1527 1527 1528 1528 1529 1530 1531 1531 1530 1531 1530 1530 1530 1529 1529 1528 1527 1526 1525 1525 1524 1523 1521 1520 1519 1517 1516 1515 1513 1512 1510 1509 1508 1508 1508 1507 1506 1504 1503 1502 1500 1498 1497 1495 1494 1493 1491 1488 1486 1483 1481 1478 1475 1471 1468 1465 1461 1457 1453 1449 1445 1442 1441 1441 1441 1440 1438 1437 1437 1440 1442 1442 1442 1445 1448 1447 1446 1446 1449 1450 1451 1451 1453 1455 1456
1524 1525 1526 1526 1527 1528 1528 1529 1528 1528 1528 1528 1528 1527 1527 1526 1525 1524 1523 1523 1522 1521 1519 1518 1516 1516 1515 1513 1511 1510 1508 1507 1506 1506 1506 1505 1504 1503 1501 1500 1498 1496 1495 1493 1492 1490 1488 1486 1483 1481 1478 1475 1472 1469 1466 1463 1459 1455 1452 1448 1444 1440 1438 1437 1437 1436 1435 1434 1434 1436 1437 1436 1437 1440 1443 1442 1442 1443 1445 1446 1447 1448 1449 1450 1451
1522 1523 1523 1524 1525 1526 1526 1527 1526 1526 1526 1526 1526 1525 1525 1524 1523 1522 1521 1520 1520 1518 1517 1516 1515 1514 1513 1512 1510 1509 1507 1506 1504 1505 1504 1503 1502 1500 1499 1497 1496 1494 1492 1491 1489 1487 1485 1483 1481 1478 1475 1472 1469 1466 1463 1460 1456 1453 1449 1446 1442 1439 1437 1435 1433 1432 1432 1432 1431 1432 1432 1431 1431 1435 1438 1438 1438 1438 1440 1442 1443 1444 1444 1444 1445
1520 1521 1521 1522 1523 1524 1525 1525 1525 1525 1524 1524 1524 1523 1523 1522 1521 1520 1519 1519 1518 1516 1516 1514 1513 1512 1511 1510 1509 1508 1506 1505 1504 1503 1502 1501 1499 1498 1496 1495 1493 1492 1490 1488 1487 1485 1483 1481 1478 1476 1473 1470 1467 1463 1460 1457 1454 1451 1447 1443 1440 1437 1435 1433 1431 1429 1428 1428 1428 1427 1428 1427 1427 1429 1432 1433 1433 1434 1435 1437 1438 1439 1439 1439 1440
1518 1518 1519 1520 1521 1522 1523 1523 1523 1523 1522 1522 1522 1521 1521 1520 1519 1519 1518 1517 1516 1515 1514 1513 1511 1511 1509 1508 1508 1506 1505 1503 1503 1502 1500 1499 1497 1495 1494 1492 1491 1489 1488 1486 1484 1482 1480 1478 1476 1473 1471 1468 1465 1461 1457 1454 1451 1448 1444 1440 1436 1433 1431 1429 1428 1426 1424 1423 1422 1422 1422 1423 1422 1424 1427 1428 1429 1430 1430 1432 1433 1434 1435 1435 1436
1516 1516 1517 1518 1519 1520 1520 1520 1520 1520 1520 1520 1519 1519 1519 1518 1517 1517 1516 1515 1514 1513 1512 1511 1510 1509 1507 1506 1505 1504 1502 1501 1501 1500 1498 1497 1495 1493 1492 1490 1488 1487 1485 1483 1482 1480 1478 1476 1473 1471 1468 1466 1463 1459 1456 1452 1448 1445 1441 1437 1433 1429 1426 1424 1424 1423 1421 1418 1416 1415 1416 1418 1418 1419 1422 1424 1425 1426 1426 1427 1429 1430 1431 1432 1433
1513 1514 1515 1516 1516 1517 1518 1518 1518 1518 1517 1518 1517 1517 1516 1515 1515 1514 1514 1513 1512 1511 1510 1509 1508 1507 1505 1503 1503 1502 1501 1499 1498 1497 1496 1495 1493 1492 1490 1488 1486 1484 1483 1481 1479 1477 1475 1474 1471 1469 1466 1464 1461 1458 1455 1451 1446 1442 1438 1434 1430 1426 1423 1420 1419 1417 1415 1413 1410 1408 1409 1412 1413 1415 1418 1419 1420 1421 1423 1424 1425 1427 1429 1429 1430
1511 1511 1512 1513 1513 1514 1515 1515 1515 1515 1515 1515 1515 1514 1514 1513 1513 1512 1511 1511 1510 1509 1508 1507 1506 1504 1503 1502 1501 1500 1499 1497 1496 1495 1494 1492 1491 1490 1488 1486 1484 1482 1480 1478 1477 1475 1473 1471 1469 1467 1464 1462 1460 1457 1453 1449 1445 1441 1436 1431 1427 1422 1419 1416 1414 1411 1408 1405 1403 1402 1402 1404 1407 1410 1412 1414 1415 1417 1419 1420 1422 1424 1426 1428 1428
1508 1508 1509 1510 1510 1511 1512 1512 1512 1513 1513 1513 1513 1512 1511 1511 1510 1510 1509 1508 1507 1506 1506 1504 1503 1502 1501 1500 1499 1497 1496 1495 1494 1492 1490 1489 1488 1487 1485 1484 1482 1481 1479 1477 1474 1472 1471 1469 1467 1465 1463 1460 1458 1455 1452 1448 1443 1439 1434 1429 1424 1419 1414 1410 1407 1403 1400 1396 1393 1392 1393 1396 1400 1403 1407 1409 1411 1413 1416 1416 1417 1420 1423 1425 1424
1504 1505 1506 1507 1508 1509 1509 1510 1510 1510 1510 1510 1510 1510 1509 1509 1508 1507 1506 1505 1505 1504 1503 1502 1501 1500 1499 1498 1496 1495 1494 1493 1491 1489 1487 1486 1485 1483 1482 1481 1480 1479 1477 1475 1473 1470 1468 1466 1465 1463 1461 1459 1456 1453 1450 1446 1442 1438 1433 1427 1422 1417 1411 1405 1399 1393 1389 1385 1382 1382 1383 1387 1391 1396 1400 1403 1406 1409 1410 1412 1414 1417 1419 1420 1421
1501 1503 1504 1505 1506 1507 1507 1508 1508 1508 1508 1508 1508 1508 1507 1507 1506 1505 1504 1503 1502 1502 1501 1500 1499 1498 1496 1495 1494 1492 1491 1489 1488 1486 1484 1483 1482 1481 1480 1479 1477 1477 1476 1473 1471 1468 1466 1464 1462 1461 1459 1457 1454 1452 1449 1446 1442 1438 1433 1427 1421 1416 1410 1403 1395 1387 1379 1375 1373 1374 1376 1379 1384 1388 1393 1396 1400 1402 1404 1407 1411 1413 1415 1416 1417
1500 1501 1503 1503 1504 1505 1505 1505 1505 1505 1505 1505 1505 1505 1505 1504 1503 1502 1501 1501 1500 1499 1498 1497 1496 1495 1494 1493 1491 1490 1488 1486 1485 1483 1482 1480 1479 1478 1477 1476 1475 1475 1474 1471 1468 1466 1464 1462 1460 1459 1457 1455 1453 1450 1447 1444 1441 1437 1433 1427 1421 1414 1407 1400 1393 1383 1373 1367 1366 1368 1371 1375 1378 1382 1387 1390 1393 1396 1399 1403 1406 1408 1410 1412 1413
1499 1500 1501 1501 1502 1502 1502 1502 1502 1502 1502 1502 1502 1503 1502 1501 1500 1499 1499 1498 1497 1496 1495 1494 1493 1492 1491 1490 1489 1488 1486 1484 1483 1481 1479 1478 1477 1475 1475 1474 1474 1473 1471 1469 1467 1465 1463 1460 1459 1457 1455 1453 1451 1448 1445 1443 1440 1436 1432 1427 1421 1415 1407 1399 1391 1381 1370 1364 1364 1367 1370 1373 1375 1378 1382 1385 1387 1390 1394 1397 1401 1404 1405 1407 1409
1497 1497 1498 1499 1500 1499 1499 1500 1500 1500 1500 1500 1500 1499 1499 1498 1497 1496 1496 1495 1494 1493 1491 1490 1489 1489 1488 1488 1487 1485 1483 1482 1481 1479 1477 1476 1474 1473 1473 1472 1472 1470 1469 1467 1466 1463 1461 1459 1457 1455 1453 1451 1449 1446 1444 1441 1438 1435 1431 1426 1420 1414 1406 1399 1391 1381 1371 1366 1365 1367 1370 1372 1374 1376 1378 1381 1383 1385 1389 1392 1396 1400 1401 1403 1405
1494 1494 1495 1496 1496 1496 1497 1497 1498 1498 1498 1498 1497 1496 1495 1495 1494 1493 1493 1492 1490 1489 1488 1487 1486 1486 1485 1485 1484 1482 1481 1479 1478 1477 1476 1474 1473 1472 1471 1470 1470 1469 1467 1466 1464 1462 1460 1458 1456 1453 1451 1449 1447 1445 1442 1440 1437 1434 1430 1425 1420 1413 1406 1399 1392 1383 1374 1368 1367 1367 1369 1371 1373 1374 1375 1378 1379 1381 1384 1388 1391 1395 1397 1400 1402
1491 1491 1491 1491 1492 1493 1493 1493 1493 1494 1495 1494 1493 1492 1492 1492 1491 1490 1489 1488 1487 1486 1485 1484 1484 1483 1482 1481 1481 1480 1478 1477 1476 1475 1474 1473 1472 1471 1470 1469 1468 1467 1465 1464 1463 1461 1459 1457 1455 1452 1450 1448 1446 1443 1441 1439 1436 1433 1430 1425 1420 1413 1407 1400 1393 1386 1379 1373 1370 1369 1369 1369 1370 1371 1372 1374 1377 1378 1381 1384 1387 1390 1393 1396 1399
1489 1488 1488 1488 1489 1490 1490 1491 1491 1491 1491 1491 1490 1490 1490 1489 1489 1488 1487 1486 1484 1483 1483 1482 1481 1480 1479 1478 1477 1476 1475 1474 1474 1473 1472 1472 1470 1469 1468 1467 1466 1465 1464 1463 1461 1460 1457 1455 1454 1451 1449 1447 1445 1442 1440 1438 1435 1433 1429 1426 1421 1415 1409 1404 1397 1390 1383 1378 1374 1372 1370 1369 1368 1368 1369 1372 1374 1376 1378 1379 1382 1385 1388 1392 1394
1486 1486 1486 1485 1486 1487 1488 1489 1489 1489 1488 1488 1487 1487 1487 1487 1486 1486 1485 1484 1483 1481 1481 1480 1479 1478 1476 1476 1476 1474 1473 1472 1471 1470 1470 1469 1468 1467 1466 1465 1464 1463 1462 1461 1460 1458 1456 1454 1452 1450 1448 1446 1444 1442 1439 1437 1435 1433 1430 1426 1422 1417 1412 1407 1401 1394 1388 1383 1379 1375 1372 1370 1367 1367 1368 1369 1371 1373 1374 1376 1378 1380 1383 1387 1389
1483 1484 1484 1483 1484 1485 1486 1486 1486 1487 1486 1485 1485 1485 1485 1484 1484 1483 1481 1481 1481 1481 1480 1478 1476 1475 1473 1473 1474 1473 1471 1471 1470 1468 1468 1467 1466 1466 1465 1463 1463 1462 1461 1460 1459 1457 1454 1453 1451 1449 1447 1445 1444 1441 1439 1437 1435 1432 1430 1427 1424 1420 1415 1411 1406 1399 1393 1388 1384 1379 1376 1372 1367 1365 1366 1366 1367 1369 1371 1372 1375 1377 1380 1383 1386
1482 1482 1482 1482 1483 1483 1483 1483 1483 1484 1484 1484 1483 1483 1482 1483 1482 1480 1478 1478 1479 1478 1478 1476 1475 1473 1472 1471 1471 1471 1471 1470 1468 1466 1466 1465 1464 1464 1463 1462 1461 1460 1460 1458 1457 1455 1453 1452 1450 1449 1447 1445 1443 1441 1439 1437 1435 1432 1430 1427 1425 1422 1418 1413 1409 1403 1398 1393 1389 1385 1381 1376 1371 1368 1367 1366 1365 1367 1369 1371 1374 1376 1378 1380 1383
1480 1481 1481 1481 1482 1482 1481 1482 1481 1481 1482 1482 1481 1479 1479 1480 1480 1478 1476 1476 1475 1475 1474 1474 1473 1472 1471 1470 1469 1470 1469 1468 1466 1465 1464 1463 1462 1462 1461 1460 1459 1458 1458 1456 1455 1454 1452 1451 1450 1448 1446 1444 1442 1440 1438 1437 1434 1432 1430 1427 1425 1422 1419 1415 1410 1406 1402 1398 1394 1390 1386 1382 1378 1374 1371 1369 1366 1366 1367 1370 1372 1373 1375 1378 1381
1480 1481 1480 1480 1481 1480 1480 1480 1480 1480 1480 1480 1479 1477 1476 1476 1477 1475 1474 1473 1472 1471 1471 1471 1470 1470 1470 1468 1467 1468 1468 1466 1465 1464 1463 1462 1461 1460 1459 1459 1458 1457 1456 1455 1454 1453 1451 1450 1449 1447 1445 1443 1442 1440 1438 1436 1434 1432 1430 1428 1426 1422 1419 1416 1413 1409 1406 1402 1399 1396 1392 1388 1384 1379 1377 1375 1372 1369 1368 1368 1367 1369 1372 1376 1380
1479 1479 1479 1479 1478 1478 1479 1479 1478 1478 1478 1477 1477 1476 1473 1473 1473 1473 1471 1470 1469 1469 1469 1468 1468 1469 1468 1467 1466 1466 1466 1464 1463 1462 1461 1460 1460 1459 1458 1457 1456 1456 1455 1454 1453 1452 1451 1449 1448 1446 1444 1443 1441 1440 1439 1437 1435 1433 1431 1429 1427 1423 1420 1418 1415 1412 1409 1406 1403 1401 1398 1394 1390 1386 1384 1383 1381 1376 1373 1371 1370 1370 1372 1375 1377
1477 1477 1478 1477 1476 1476 1477 1477 1476 1476 1475 1475 1475 1474 1472 1470 1470 1470 1469 1468 1467 1467 1467 1466 1466 1466 1466 1466 1465 1465 1464 1463 1462 1461 1460 1459 1458 1458 1457 1456 1455 1455 1454 1454 1453 1452 1450 1448 1447 1445 1444 1443 1441 1440 1439 1437 1436 1434 1431 1429 1427 1425 1422 1419 1417 1415 1412 1409 1408 1406 1404 1400 1397 1394 1391 1391 1388 1384 1380 1378 1378 1379 1379 1379 1379
1475 1475 1475 1475 1474 1474 1475 1474 1474 1474 1473 1473 1473 1472 1471 1470 1469 1467 1466 1466 1465 1465 1465 1465 1464 1464 1464 1465 1465 1464 1463 1462 1461 1460 1459 1458 1457 1457 1456 1455 1454 1454 1454 1453 1453 1451 1449 1448 1447 1445 1444 1443 1442 1441 1440 1438 1436 1435 1432 1431 1429 1427 1424 1422 1419 1417 1415 1413 1411 1410 1408 1405 1403 1400 1398 1397 1394 1389 1386 1385 1385 1385 1386 1386 1385
1473 1473 1472 1472 1473 1473 1473 1473 1472 1472 1472 1471 1471 1470 1470 1470 1468 1466 1465 1465 1465 1464 1464 1464 1463 1463 1463 1463 1463 1463 1462 1461 1460 1459 1458 1457 1457 1456 1456 1455 1455 1454 1453 1452 1451 1450 1448 1447 1447 1446 1445 1443 1442 1442 1440 1439 1437 1436 1434 1432 1431 1429 1427 1424 1422 1420 1418 1416 1414 1412 1410 1408 1406 1404 1402 1401 1398 1395 1392 1391 1390 1390 1390 1391 1390
1471 1471 1470 1470 1471 1471 1471 1471 1471 1470 1470 1470 1469 1468 1468 1467 1467 1466 1465 1465 1465 1464 1463 1463 1463 1462 1462 1462 1462 1462 1461 1460 1459 1458 1457 1456 1456 1456 1456 1456 1455 1454 1453 1451 1450 1449 1448 1447 1447 1446 1445 1444 1443 1442 1441 1440 1439 1437 1435 1433 1432 1431 1429 1426 1424 1422 1420 1418 1416 1414 1411 1410 1408 1406 1405 1404 1402 1400 1399 1397 1396 1396 1395 1395 1394
1469 1470 1469 1469 1470 1470 1470 1470 1469 1469 1468 1468 1467 1467 1466 1466 1466 1465 1465 1465 1465 1464 1463 1464 1463 1463 1462 1461 1461 1461 1461 1460 1459 1457 1456 1455 1456 1456 1456 1456 1455 1454 1452 1451 1450 1449 1449 1448 1448 1447 1446 1446 1445 1443 1442 1441 1440 1438 1437 1435 1433 1432 1431 1429 1426 1424 1422 1420 1418 1416 1413 1412 1410 1408 1407 1405 1404 1403 1403 1402 1401 1400 1400 1399 1398
1468 1467 1467 1467 1468 1468 1468 1468 1467 1467 1466 1465 1465 1465 1465 1465 1465 1465 1465 1465 1464 1464 1464 1464 1465 1464 1463 1462 1461 1461 1461 1460 1458 1456 1455 1454 1454 1454 1454 1454 1454 1453 1452 1451 1451 1450 1449 1449 1448 1448 1447 1446 1446 1445 1444 1443 1441 1440 1438 1437 1435 1434 1432 1431 1429 1426 1424 1422 1420 1418 1416 1414 1413 1411 1409 1408 1406 1405 1405 1404 1404 1403 1403 1403 1402
1465 1465 1465 1466 1466 1466 1467 1466 1465 1465 1464 1464 1463 1463 1463 1463 1463 1463 1464 1464 1464 1464 1464 1464 1464 1464 1463 1462 1461 1461 1461 1461 1459 1458 1456 1455 1454 1453 1453 1453 1453 1453 1452 1452 1452 1451 1450 1450 1449 1448 1447 1447 1446 1445 1444 1443 1442 1441 1439 1438 1436 1435 1434 1432 1430 1428 1426 1424 1422 1420 1419 1417 1416 1414 1412 1411 1409 1408 1407 1406 1405 1405 1405 1405 1405
1463 1463 1464 1464 1465 1465 1465 1465 1464 1464 1463 1463 1462 1462 1462 1462 1463 1462 1463 1463 1463 1463 1463 1463 1463 1463 1462 1461 1460 1460 1461 1461 1460 1459 1458 1456 1454 1454 1454 1454 1454 1453 1453 1452 1452 1452 1451 1450 1450 1449 1448 1447 1447 1446 1445 1444 1443 1442 1440 1439 1437 1435 1434 1432 1431 1429 1428 1426 1424 1422 1420 1419 1417 1416 1414 1413 1412 1411 1410 1409 1408 1407 1407 1406 1406
1462 1462 1462 1462 1463 1463 1463 1463 1463 1463 1462 1462 1462 1462 1462 1463 1463 1462 1462 1462 1463 1463 1462 1462 1461 1461 1460 1460 1459 1459 1460 1460 1458 1458 1457 1456 1455 1455 1454 1454 1454 1454 1454 1453 1453 1452 1452 1451 1450 1450 1449 1448 1447 1446 1446 1445 1444 1442 1441 1440 1438 1436 1435 1433 1432 1431 1429 1427 1425 1423 1422 1420 1419 1417 1415 1414 1413 1413 1412 1411 1410 1409 1409 1408 1408
1461 1461 1460 1461 1461 1461 1461 1462 1461 1461 1461 1461 1462 1462 1462 1462 1463 1462 1462 1463 1463 1463 1462 1461 1460 1459 1458 1458 1458 1458 1458 1458 1457 1457 1456 1455 1455 1455 1455 1455 1455 1455 1454 1453 1453 1453 1452 1452 1451 1450 1449 1448 1448 1447 1446 1445 1444 1443 1441 1440 1439 1437 1436 1434 1433 1432 1430 1428 1427 1425 1423 1422 1420 1419 1417 1416 1415 1414 1414 1413 1412 1411 1411 1410 1409
1460 1460 1459 1459 1460 1460 1460 1461 1460 1460 1461 1461 1461 1462 1462 1462 1463 1463 1464 1464 1464 1464 1463 1462 1460 1458 1457 1457 1457 1457 1457 1456 1456 1456 1455 1455 1455 1455 1455 1455 1455 1455 1454 1454 1453 1453 1453 1452 1451 1450 1449 1448 1447 1446 1445 1445 1444 1442 1441 1440 1439 1438 1436 1435 1434 1432 1431 1429 1428 1426 1425 1424 1423 1421 1420 1419 1418 1416 1416 1415 1414 1413 1412 1412 1411
1459 1459 1458 1458 1459 1459 1459 1459 1460 1460 1461 1461 1461 1461 1461 1463 1464 1464 1464 1464 1464 1464 1463 1462 1459 1457 1457 1456 1457 1456 1456 1455 1455 1455 1455 1455 1455 1455 1455 1455 1455 1455 1455 1454 1453 1453 1453 1452 1451 1450 1449 1448 1447 1446 1445 1444 1443 1442 1441 1439 1438 1437 1436 1435 1434 1432 1431 1430 1429 1427 1426 1425 1424 1424 1423 1421 1420 1419 1418 1416 1415 1414 1414 1413 1412
1457 1457 1457 1458 1457 1458 1458 1459 1460 1460 1460 1460 1461 1461 1461 1462 1463 1463 1463 1463 1464 1463 1463 1462 1460 1458 1457 1456 1456 1456 1456 1455 1454 1454 1455 1455 1455 1455 1455 1455 1455 1454 1454 1453 1453 1453 1452 1451 1451 1450 1449 1448 1447 1446 1445 1443 1442 1441 1440 1439 1438 1437 1435 1434 1433 1432 1431 1430 1429 1428 1427 1426 1425 1425 1424 1422 1421 1420 1419 1418 1417 1416 1415 1414 1414
1457 1457 1457 1457 1457 1457 1458 1459 1460 1460 1460 1460 1461 1461 1461 1462 1463 1462 1462 1462 1462 1462 1462 1461 1460 1459 1458 1457 1457 1456 1456 1455 1454 1454 1455 1455 1455 1455 1456 1456 1456 1455 1453 1453 1452 1452 1451 1451 1450 1449 1448 1447 1446 1446 1445 1443 1442 1441 1440 1439 1438 1437 1435 1434 1434 1433 1432 1431 1430 1429 1428 1428 1426 1425 1424 1423 1422 1421 1420 1419 1419 1418 1417 1416 1415
1456 1456 1457 1457 1457 1458 1458 1459 1460 1460 1460 1460 1460 1460 1461 1461 1462 1461 1460 1460 1461 1461 1461 1460 1458 1458 1457 1457 1457 1457 1456 1455 1455 1454 1454 1454 1454 1455 1455 1456 1456 1455 1454 1452 1452 1451 1450 1450 1449 1448 1447 1447 1446 1445 1445 1444 1442 1441 1440 1439 1438 1437 1436 1435 1434 1433 1432 1431 1430 1430 1429 1428 1427 1427 1425 1424 1423 1422 1421 1420 1419 1419 1418 1417 1417
1456 1456 1457 1457 1457 1458 1458 1459 1459 1459 1459 1459 1460 1460 1460 1460 1460 1459 1459 1459 1460 1460 1460 1459 1458 1457 1457 1458 1457 1457 1456 1456 1456 1455 1455 1454 1453 1454 1454 1454 1455 1455 1453 1452 1451 1451 1450 1449 1448 1447 1447 1446 1446 1445 1445 1444 1443 1442 1441 1439 1439 1438 1436 1436 1435 1433 1433 1432 1431 1430 1430 1429 1428 1427 1426 1425 1424 1423 1422 1421 1420 1419 1419 1418 1418
1455 1456 1457 1457 1457 1458 1458 1458 1458 1458 1458 1458 1458 1458 1459 1459 1459 1459 1458 1458 1458 1458 1458 1458 1457 1457 1457 1457 1457 1456 1456 1456 1456 1456 1456 1455 1454 1453 1453 1452 1453 1453 1452 1451 1451 1450 1449 1448 1448 1447 1447 1446 1445 1444 1444 1443 1443 1442 1441 1440 1439 1438 1437 1436 1435 1434 1433 1432 1431 1431 1431 1430 1429 1428 1427 1426 1425 1424 1423 1422 1421 1420 1420 1419 1418
1455 1455 1455 1456 1456 1457 1457 1457 1457 1457 1457 1457 1457 1457 1457 1457 1457 1457 1457 1457 1457 1457 1457 1456 1456 1456 1456 1456 1456 1456 1456 1455 1455 1455 1455 1454 1454 1453 1451 1451 1451 1452 1452 1451 1450 1449 1449 1449 1448 1447 1447 1446 1445 1444 1443 1443 1442 1442 1441 1440 1439 1438 1438 1437 1436 1435 1434 1433 1432 1431 1431 1431 1430 1429 1428 1427 1426 1425 1424 1423 1422 1422 1421 1420 1419
1454 1454 1454 1455 1455 1455 1456 1456 1456 1456 1456 1456 1456 1456 1456 1456 1456 1456 1456 1456 1456 1456 1456 1455 1455 1455 1455 1455 1455 1455 1455 1455 1455 1454 1454 1453 1453 1452 1451 1451 1451 1451 1451 1451 1450 1449 1449 1449 1448 1448 1447 1446 1445 1444 1443 1442 1441 1441 1440 1440 1439 1438 1438 1437 1436 1435 1435 1434 1432 1432 1432 1431 1430 1430 1429 1428 1427 1426 1425 1424 1423 1423 1423 1422 1421
1452 1452 1453 1453 1453 1454 1454 1454 1454 1455 1455 1455 1455 1455 1455 1455 1455 1455 1455 1455 1455 1455 1455 1455 1455 1455 1455 1454 1454 1454 1454 1453 1453 1453 1453 1452 1452 1451 1451 1450 1450 1451 1451 1450 1450 1450 1449 1449 1448 1448 1447 1447 1446 1445 1443 1442 1441 1441 1440 1439 1439 1438 1437 1437 1436 1435 1435 1434 1433 1432 1432 1432 1431 1430 1430 1429 1428 1427 1426 1426 1425 1424 1424 1423 1423